CZ-4C DEB, 43266

Orbit data source: Space-Track

CZ-4C DEB, 43266 is space debris in SSO originally from a launch on Sat, 31 Mar 2018 UTC launched from the Taiyaun Space Center, China (TSC). Debris objects in space refer to the collection of defunct objects orbiting the Earth. Examples of debris include non-operational satellites, rocket bodies, and fragments generated from explosions, collisions, or faulty payload assembly.

Loading next visibility...
Identifier
43266, 2018-031H
Orbit
SSO
Country
Flag of CNCN / PRC
Related business
Manufacturer
Unknown
Mission
Spacecraft
Bus & Motor
Unknown
Mass
Unknown
Launch date (UTC)
2018-03-31 (8 years ago)
Launch vehicle
Unknown
Launch site
Taiyaun Space Center, China (TSC)
Object type
Payload
Rocket body
Debris
Shape & HBR
Unknown shape, 0.1 m
Radar Cross Section
Small (<0.1 m²)

Expand to show TLE details & history
Last TLE update: 1 day ago

TLE from 1 day ago
0 CZ-4C DEB
1 43266U 18031H   25310.41955220  .00015447  00000-0  93972-3 0  9997
2 43266  98.1572 111.5119 0021544 331.0630  28.9402 15.10344652413077
Epoch: 2025-11-06T10:04Z
TLE epoch observation values (Epoch: 2025-11-06T10:04:09.310Z)
Latitude
0.00004°
Longitude
-85.40503°
Altitude
525.173 km
Speed
7.608 km/s
True Right ascension
07h 26m 02s
True Declination
0° 00' 00"
Sunlit
Object was in daylight at epoch
Visualization orbit readout
Latitude
Unknown
Longitude
Unknown
Altitude
Unknown
Speed
Unknown
Apparent Right ascension
Unknown
Apparent Declination
Unknown
Sunlit
N/A
Visualization observer readout
Local Sidereal Time
07:49:42
Azimuth
Unknown
Elevation
Unknown
Doppler factor
Unknown
Orbital elements
Apogee altitude
547.048 km
Perigee altitude
517.273 km
Semi-major axis
6,910.297 km
Eccentricity
0.00215
Inclination
98.1572°
RAAN
111.5119°
Arg. of periapsis
331.063°
True anomaly
29.05994°
Mean anomaly
28.9402°
Eccentric anomaly
29.00004°
Mean motion
3.77831 °/min
Orbital period
95.28 mins
BSTAR
0.00093972
Loading maneuver chart data...
Computing Atmospheric mass density...
Loading historical data...
Loading historical data...
Loading historical data...
Loading historical data...
Loading historical data...
Loading historical data...
Loading historical data...

Documentation

Showing up to 5 results
|